Wetbulb
47.85 52.25 52.38 50.94 51.26 51.32 47.50 50.10 43.27 48.45 51.46 54.13 56.39 59.53 59.85 61.43 62.64 63.30 64.17 65.24 64.99 65.47 65.80 65.84 66.62 68.42 70.65 70.25 70.36 71.79 71.35 70.56 69.13 68.60 70.27 70.96 70.48 71.04 71.81 72.43 72.47 71.78 70.95 71.81
46.54 50.71 52.51 50.27 52.40 52.49 52.60 52.56 50.73 52.27 50.14 57.94 58.81 59.04 60.36 60.92 62.61 62.26 63.84 65.16 65.09 65.83 65.66 65.44 67.21 68.33 69.20 69.61 69.78 69.88 69.51 68.51 70.21 68.85 68.83 68.76 67.98 66.92 67.23 70.46 70.81 71.45 71.38 70.95
42.22 48.59 48.57 46.56 51.13 52.05 52.84 53.13 50.71 47.57 52.98 57.60 57.58 59.06 60.04 60.99 62.54 62.57 63.54 64.89 64.68 65.22 65.20 65.83 65.67 67.21 67.98 68.94 69.98 69.28 68.22 67.71 68.85 68.20 68.18 68.88 68.49 66.76 66.14 67.16 70.33 70.60 70.65 71.36
44.05 46.71 39.90 48.02 54.61 55.69 53.52 55.17 55.25 54.81 56.26 57.76 58.91 59.74 61.87 62.94 62.06 63.33 64.59 64.63 64.68 64.21 63.75 64.70 65.10 65.02 65.62 67.88 67.14 66.35 65.72 67.39 67.70 66.84 67.46 67.93 67.59 66.51 66.09 68.04 69.43 69.38 70.42 70.60
42.41 42.76 46.58 50.15 53.73 52.97 51.37 51.46 56.26 57.68 58.76 59.48 59.69 59.44 59.44 63.07 63.45 63.57 65.04 64.72 64.81 65.02 65.10 65.80 65.63 65.45 64.27 63.81 63.67 64.23 64.93 65.12 66.19 66.58 64.83 65.15 64.70 64.61 64.73 67.93 70.21 69.12 69.88 69.85
44.02 41.37 39.79 49.12 55.33 58.16 55.83 47.56 57.08 56.96 57.60 59.03 58.87 52.65 54.86 62.04 64.26 65.62 66.19 65.37 65.08 65.10 64.93 64.18 64.09 65.62 64.45 62.90 61.90 62.21 63.85 64.60 65.72 66.28 65.06 64.49 65.66 65.63 66.55 68.90 68.99 68.76 68.13 66.69
45.11 43.25 46.99 54.86 56.35 57.50 47.00 47.27 56.80 56.76 58.46 57.88 56.05 57.88 59.72 64.94 65.30 65.87 65.79 65.68 65.94 65.25 64.42 64.98 64.78 65.30 64.47 63.93 63.13 65.02 66.16 66.45 65.73 65.51 65.71 66.18 66.24 66.33 67.34 67.54 67.73 65.78 63.99 63.13
44.35 42.15 40.54 55.78 56.17 49.98 52.90 55.50 57.17 57.29 62.30 61.71 61.98 63.23 65.49 66.09 66.38 66.52 65.63 66.25 66.40 65.29 65.14 66.05 66.52 66.12 66.43 65.53 66.72 67.88 67.39 66.67 66.94 66.80 66.50 66.66 65.52 66.53 66.19 67.02 65.89 64.30 62.81 60.86
47.87 47.34 53.14 56.35 55.45 56.30 58.09 56.25 57.20 59.24 63.90 63.74 63.10 64.84 65.25 64.58 65.13 64.96 64.58 65.13 65.82 65.09 64.81 65.09 63.82 66.10 66.50 66.54 67.28 66.60 65.12 64.40 65.24 65.28 65.68 66.19 65.56 64.88 64.10 64.45 63.36 62.52 61.37 60.84
48.68 52.33 52.36 54.55 58.82 58.40 57.70 57.98 58.00 65.62 64.86 64.71 63.65 65.49 65.05 64.54 64.18 64.26 64.92 64.55 64.32 63.62 62.41 62.35 62.54 64.52 65.09 65.94 66.02 64.40 63.38 63.39 63.41 63.32 62.12 63.07 63.59 63.49 63.31 62.81 62.16 61.79 60.80 60.94
48.64 52.76 52.53 57.93 54.84 56.47 56.98 60.23 60.84 61.73 65.71 64.91 64.61 64.13 64.40 63.25 61.43 61.24 61.40 61.56 62.20 61.79 61.89 62.64 62.71 62.57 63.89 65.41 65.34 64.69 63.79 63.85 60.51 61.03 58.69 55.05 51.48 50.49 55.82 51.26 51.21 60.54 60.02 60.18
45.51 53.19 51.86 52.03 55.49 57.41 56.61 58.11 59.78 59.51 64.67 64.98 64.84 63.41 63.45 62.13 62.27 62.15 61.88 62.13 61.46 61.01 61.93 61.70 62.82 62.48 62.18 64.96 64.41 62.90 62.30 63.80 63.10 61.90 59.52 57.48 56.67 54.48 47.99 47.21 45.64 44.55 46.79 54.06
51.72 55.87 54.55 55.64 56.79 58.81 58.58 59.26 60.50 64.53 64.71 63.63 64.40 64.08 63.52 62.84 63.01 62.50 62.89 62.08 61.25 60.78 62.45 61.73 62.18 61.05 63.21 64.63 63.81 63.24 62.75 61.32 62.23 62.76 61.88 60.36 58.82 57.69 53.87 51.32 46.38 44.62 43.71 45.92
55.41 56.54 53.65 55.96 54.16 57.48 60.61 60.83 60.55 64.68 65.44 65.13 64.62 64.50 64.26 63.34 62.80 63.12 61.74 61.12 61.97 61.38 61.54 61.28 62.33 62.55 63.36 64.04 64.56 64.00 60.30 59.23 61.57 60.54 61.23 61.42 61.50 61.35 59.04 56.26 54.52 53.03 48.03 48.80
55.75 56.15 56.07 57.26 58.48 58.94 61.35 61.21 59.75 59.38 63.39 63.69 64.79 63.98 63.76 62.64 62.24 62.15 62.50 61.11 60.59 61.58 61.37 61.39 62.28 62.82 63.91 64.08 63.03 63.34 61.59 60.53 61.07 61.34 61.34 60.27 60.80 61.73 60.96 61.10 59.52 56.86 53.25 49.22
55.34 55.68 57.25 57.79 57.88 59.90 60.06 60.35 59.51 56.94 62.75 62.24 62.00 63.20 63.12 62.72 61.89 61.66 60.31 59.44 58.56 60.53 61.17 62.18 62.07 63.15 63.80 63.84 63.15 62.95 61.75 61.62 61.65 61.68 59.94 60.19 60.78 60.17 59.57 60.82 59.82 57.97 56.96 55.80
54.51 54.66 56.52 57.67 58.39 59.35 59.77 59.86 60.00 59.71 62.00 61.52 61.49 62.30 60.95 61.15 61.06 59.40 58.88 59.46 60.06 62.39 62.08 62.43 63.01 63.92 63.07 63.24 63.38 62.82 62.23 61.57 61.64 60.98 60.19 60.33 60.33 60.09 58.75 58.79 58.63 59.04 58.54 56.01
56.48 59.68 58.40 58.51 57.50 58.74 57.96 59.01 60.91 62.06 61.82 61.58 61.48 61.02 61.01 60.91 59.42 58.45 58.17 59.55 61.43 62.34 62.63 63.55 63.82 63.97 63.75 63.50 63.44 62.41 62.15 61.33 60.75 60.39 60.59 60.22 59.81 59.66 59.08 59.12 58.86 57.91 53.22 50.64
58.38 58.08 59.16 59.84 58.72 58.13 56.74 58.96 61.94 62.22 61.52 61.22 61.29 61.35 61.99 61.64 60.47 59.72 60.09 58.99 59.38 59.28 60.63 63.46 64.19 63.76 62.81 63.81 63.15 61.59 62.50 61.06 59.01 60.30 60.62 58.91 56.35 55.76 55.66 55.42 54.92 53.95 51.98 50.09
58.40 60.67 60.94 61.00 62.65 60.47 60.13 60.90 61.30 61.35 61.68 62.17 62.75 62.31 61.57 60.94 60.80 60.91 59.77 58.98 59.13 60.47 62.57 61.40 60.67 61.53 61.43 60.58 60.69 56.75 57.22 58.65 56.56 57.01 56.70 56.25 54.82 54.33 55.06 52.41 54.32 53.79 51.57 50.67
58.33 59.49 60.04 61.28 61.01 61.41 59.64 60.04 61.40 60.04 60.53 61.28 62.10 62.17 62.28 62.17 62.14 62.08 60.80 59.62 61.68 61.61 62.35 60.54 60.75 59.67 60.38 61.28 59.21 56.46 56.82 57.24 56.81 57.11 55.97 55.33 55.38 55.24 55.58 55.68 55.00 54.62 54.63 53.47
58.14 59.33 59.86 60.41 57.87 58.64 59.15 59.91 61.57 60.67 60.14 60.22 61.04 61.22 63.81 62.51 62.48 62.13 62.10 61.21 63.24 58.50 60.74 61.13 61.04 60.41 59.03 62.34 58.95 56.21 55.47 56.00 56.81 56.51 56.09 55.76 54.83 54.50 55.26 55.53 56.08 56.13 55.15 54.89
58.62 60.54 60.33 60.75 59.63 60.23 60.52 60.79 61.09 60.16 59.59 60.25 59.72 59.79 61.46 64.32 63.91 62.34 61.64 63.98 63.65 59.22 62.02 61.88 60.75 59.24 58.84 59.27 59.22 58.59 56.53 55.45 56.24 56.72 57.10 57.37 56.88 56.19 56.40 58.55 58.46 59.20 58.75 58.08
58.77 60.20 61.48 61.99 60.39 60.28 58.09 58.92 59.28 59.68 59.49 60.14 59.77 60.06 59.44 62.74 64.29 65.47 65.43 61.67 59.54 57.18 61.83 62.10 59.55 56.44 56.45 58.50 58.83 58.19 57.93 58.84 59.16 58.63 57.43 54.39 58.23 58.25 58.83 59.19 57.13 56.30 56.11 55.63
59.39 58.05 62.09 61.42 58.11 58.41 59.05 59.44 59.08 58.88 58.96 58.19 58.64 59.92 59.63 63.27 64.89 65.50 65.84 65.71 57.34 57.82 60.80 56.92 56.24 55.30 57.95 58.93 59.26 58.55 58.65 59.32 60.37 60.95 60.79 60.57 58.76 58.31 58.24 58.72 58.88 58.70 59.94 60.23
58.65 59.96 59.08 58.60 58.51 59.90 60.79 59.66 58.85 59.64 60.32 59.25 59.49 60.49 63.03 66.28 66.43 64.42 64.99 61.95 60.92 60.89 63.18 61.88 57.73 57.61 59.22 59.23 59.49 59.79 59.96 59.80 59.22 58.65 59.25 60.40 60.61 59.86 59.44 60.04 59.24 59.81 59.64 59.77
58.47 56.28 58.11 57.32 58.17 59.35 60.27 58.37 59.30 58.65 60.17 61.91 61.50 63.01 63.83 62.91 63.45 62.26 60.23 61.34 61.95 62.85 62.02 62.83 58.87 57.36 59.51 59.83 60.47 60.31 59.55 58.79 56.53 60.50 62.37 60.78 59.76 59.65 60.19 60.20 60.46 60.35 59.11 58.61
MSLP
999.65 999.70 999.81 999.71 1000.02 1000.60 1001.67 1002.34 1002.83 1003.01 1002.61 1002.61 1002.60 1003.18 1003.80 1004.46 1005.50 1006.12 1006.83 1007.50 1007.88 1008.53 1009.00 1008.94 1008.88 1008.98 1008.94 1009.07 1009.37 1009.51 1009.63 1009.98 1010.43 1011.00 1011.77 1011.93 1012.30 1012.64 1012.96 1013.12 1013.23 1013.28 1013.66 1014.09
1000.02 999.81 1000.02 999.98 1000.33 1000.37 1000.98 1001.70 1002.07 1001.37 1001.32 1000.84 1001.50 1002.12 1003.27 1004.20 1005.04 1006.03 1006.73 1007.42 1007.95 1008.61 1009.04 1009.39 1009.45 1009.21 1009.02 1009.18 1009.38 1009.50 1009.78 1010.35 1010.55 1010.89 1011.72 1011.70 1012.75 1013.27 1013.44 1013.29 1013.01 1012.94 1013.19 1013.67
1000.70 1000.41 1000.20 1000.53 1000.35 1000.72 1001.09 1001.59 1002.53 1003.19 1000.37 1000.64 1001.62 1002.02 1002.74 1003.38 1004.39 1005.44 1006.42 1007.19 1007.90 1008.56 1009.15 1009.62 1009.78 1009.72 1009.59 1009.43 1009.39 1009.39 1009.76 1010.49 1010.61 1010.78 1010.43 1011.71 1012.44 1013.39 1013.50 1013.77 1013.17 1012.79 1013.01 1013.37
1001.36 1001.22 1000.47 999.77 999.35 999.77 1000.17 1000.24 1000.31 1000.74 1000.35 999.64 1000.36 1001.10 1001.72 1002.65 1003.72 1004.87 1005.94 1006.95 1007.68 1008.42 1009.12 1009.65 1009.83 1009.91 1010.01 1010.01 1010.04 1010.24 1010.48 1010.76 1010.78 1010.88 1011.32 1011.93 1013.42 1013.93 1014.01 1014.21 1013.30 1012.54 1012.69 1013.01
1001.90 1001.61 1000.65 999.96 1000.16 1000.43 1001.14 1001.38 1000.82 1000.67 999.83 999.65 1000.10 1000.73 1002.09 1002.31 1003.06 1004.13 1005.33 1006.45 1007.29 1008.10 1008.62 1009.41 1009.85 1010.09 1010.31 1010.60 1010.75 1010.88 1011.39 1011.77 1011.74 1011.77 1012.15 1012.55 1012.62 1013.00 1013.88 1014.21 1012.28 1012.08 1012.35 1012.59
1002.83 1002.36 1001.08 1000.25 1000.02 1000.51 1001.04 1000.98 999.99 999.87 999.46 999.71 1000.14 1001.50 1002.09 1002.19 1002.83 1004.01 1004.90 1006.11 1007.25 1008.14 1008.78 1009.25 1009.81 1010.08 1010.38 1010.78 1011.08 1011.31 1011.52 1011.77 1011.99 1012.32 1012.54 1012.73 1012.78 1012.72 1013.28 1011.11 1011.79 1010.96 1012.45 1013.11
1002.97 1002.11 1001.00 999.68 999.69 999.84 1000.47 1001.47 1000.37 999.94 999.11 999.54 1000.54 1001.12 1001.66 1002.32 1003.45 1004.22 1005.30 1006.42 1007.41 1008.21 1008.81 1009.25 1009.62 1009.89 1010.29 1010.47 1010.86 1010.98 1011.25 1011.47 1011.61 1011.87 1012.09 1012.29 1012.49 1012.52 1012.02 1011.77 1011.77 1012.06 1013.19 1013.91
1003.37 1002.54 1001.48 999.59 999.69 999.82 999.96 1000.18 999.82 999.90 999.76 1000.18 1000.78 1001.32 1002.21 1003.19 1004.13 1004.93 1005.88 1006.70 1007.52 1008.25 1008.77 1009.16 1009.43 1009.71 1010.07 1010.33 1010.55 1010.78 1011.21 1011.70 1011.94 1011.94 1012.06 1012.22 1012.39 1012.36 1012.15 1011.89 1012.50 1013.04 1013.47 1014.14
1004.74 1003.12 1002.56 1001.88 999.34 999.15 998.84 999.57 999.60 999.83 1001.22 1000.49 1001.38 1002.18 1002.90 1003.92 1004.66 1005.49 1006.12 1006.83 1007.51 1008.25 1008.91 1009.38 1009.78 1009.90 1010.22 1010.57 1010.68 1011.08 1011.46 1011.89 1012.09 1012.09 1012.19 1012.23 1012.32 1012.74 1013.04 1013.44 1013.33 1013.59 1013.88 1014.28
1005.51 1003.48 1003.32 1003.07 1001.34 1001.09 1000.05 998.97 998.95 999.25 1000.00 1000.55 1001.34 1002.34 1003.27 1004.14 1004.87 1005.57 1006.34 1007.05 1007.71 1008.42 1009.09 1009.70 1009.92 1010.30 1010.54 1010.74 1010.93 1011.23 1011.90 1012.39 1012.52 1012.53 1012.64 1012.74 1013.04 1013.20 1013.49 1013.72 1014.09 1014.34 1014.54 1014.65
1006.34 1005.62 1004.00 1002.69 1003.54 1003.96 1002.46 1000.58 998.87 999.59 999.75 1000.20 1001.02 1002.22 1003.16 1004.28 1004.98 1005.72 1006.43 1007.19 1007.80 1008.44 1009.18 1009.91 1010.21 1010.58 1010.86 1010.90 1011.15 1011.56 1011.97 1012.43 1012.74 1013.01 1013.36 1013.76 1014.22 1014.50 1014.56 1015.02 1015.06 1014.84 1014.89 1015.08
1005.64 1004.93 1004.93 1004.14 1003.42 1004.57 1002.42 1001.91 1002.37 1000.53 1000.09 1000.25 1000.67 1002.05 1003.19 1004.19 1005.03 1005.79 1006.65 1007.34 1008.11 1008.79 1009.46 1010.03 1010.36 1010.73 1010.93 1011.10 1011.37 1011.72 1011.99 1012.27 1012.70 1012.97 1013.35 1013.95 1014.58 1015.03 1015.19 1015.27 1015.17 1015.00 1014.97 1015.21
1004.66 1004.65 1004.17 1004.15 1005.45 1004.77 1003.20 1002.73 1002.08 999.75 999.20 1000.06 1000.95 1001.98 1003.03 1004.09 1005.05 1005.80 1006.55 1007.34 1008.09 1008.77 1009.36 1009.82 1010.37 1010.73 1010.85 1011.18 1011.53 1011.88 1012.14 1012.29 1012.42 1012.80 1013.34 1013.79 1014.26 1014.60 1015.21 1015.70 1015.64 1015.64 1015.67 1015.78
1003.96 1004.16 1003.68 1004.26 1004.10 1003.70 1002.79 1002.43 1001.38 999.17 999.13 999.88 1001.08 1002.28 1003.18 1004.13 1005.25 1005.88 1006.45 1007.09 1007.69 1008.47 1009.27 1009.77 1010.34 1010.77 1010.99 1011.16 1011.50 1011.91 1012.24 1012.35 1012.48 1012.66 1012.98 1013.22 1013.60 1014.04 1014.54 1015.08 1015.57 1015.97 1016.03 1016.13
1003.62 1003.68 1003.34 1003.29 1003.38 1003.97 1003.00 1003.14 1001.65 999.89 999.82 1000.74 1001.62 1002.71 1003.69 1004.68 1005.41 1005.99 1006.47 1006.81 1007.51 1008.45 1009.12 1009.70 1010.29 1010.71 1010.85 1011.14 1011.61 1011.92 1012.22 1012.44 1012.57 1012.73 1012.89 1013.05 1013.31 1013.55 1013.87 1014.28 1014.82 1015.42 1015.99 1016.24
1002.35 1002.50 1002.57 1003.13 1003.32 1003.16 1003.02 1004.04 1003.31 1002.83 1001.58 1001.82 1002.46 1003.30 1004.20 1004.96 1005.51 1006.18 1006.59 1006.87 1007.71 1008.63 1009.12 1009.58 1010.09 1010.44 1010.61 1010.96 1011.42 1011.81 1012.03 1012.21 1012.47 1012.63 1012.76 1012.83 1012.97 1013.19 1013.45 1013.75 1014.29 1014.84 1015.25 1015.54
1001.43 1001.38 1001.87 1002.54 1002.87 1002.83 1002.76 1003.39 1004.38 1004.56 1001.60 1002.13 1002.75 1003.35 1004.36 1005.22 1005.90 1006.46 1006.91 1006.97 1007.48 1008.28 1008.69 1009.26 1009.75 1009.97 1010.28 1010.58 1011.03 1011.39 1011.65 1011.91 1012.14 1012.32 1012.48 1012.63 1012.77 1012.97 1013.13 1013.36 1013.71 1014.13 1014.37 1014.48
1000.52 1000.61 1001.34 1001.77 1002.89 1002.47 1002.38 1002.83 1003.42 1000.68 1001.58 1002.03 1002.67 1003.30 1004.38 1005.34 1006.08 1006.53 1006.94 1007.15 1007.70 1008.26 1008.57 1008.89 1009.21 1009.62 1009.99 1010.23 1010.55 1010.81 1011.12 1011.46 1011.73 1011.97 1012.03 1012.24 1012.38 1012.56 1012.76 1012.86 1013.27 1013.66 1013.91 1014.22
999.81 999.91 1000.56 1001.30 1002.18 1003.38 1002.25 1002.15 1000.49 1000.30 1001.46 1002.09 1002.89 1003.91 1004.47 1005.26 1005.85 1006.37 1006.74 1007.33 1007.82 1008.22 1008.53 1008.62 1008.90 1009.29 1009.61 1009.70 1010.00 1010.43 1010.78 1010.87 1011.06 1011.24 1011.52 1011.74 1011.82 1011.82 1012.04 1012.18 1012.60 1013.00 1013.38 1013.89
999.18 999.09 999.50 999.91 1000.63 1001.62 1003.25 1000.30 1000.46 1001.04 1001.98 1002.16 1003.19 1003.92 1004.65 1005.23 1005.72 1006.29 1006.70 1007.16 1007.55 1007.73 1008.02 1008.36 1008.72 1009.14 1009.30 1009.30 1009.48 1009.95 1010.36 1010.54 1010.35 1010.66 1010.99 1011.19 1011.22 1011.34 1011.56 1011.61 1011.88 1012.53 1012.83 1013.04
998.82 998.86 999.11 999.74 1000.30 1001.59 1000.75 1000.25 1002.25 1003.74 1003.61 1003.32 1003.14 1003.49 1004.18 1004.83 1005.22 1005.90 1006.59 1007.06 1007.19 1007.22 1007.57 1008.00 1008.42 1008.71 1009.02 1009.14 1009.36 1009.70 1010.07 1010.10 1009.98 1010.24 1010.46 1010.70 1010.98 1011.15 1011.18 1011.23 1011.35 1011.62 1012.18 1012.43
998.41 998.33 997.99 998.27 999.38 1000.05 1000.82 1001.88 1003.30 1003.39 1003.43 1004.37 1004.08 1004.02 1004.31 1004.86 1005.15 1005.68 1005.94 1006.27 1006.53 1006.80 1007.32 1007.83 1008.08 1008.20 1008.40 1008.65 1009.11 1009.47 1009.83 1009.93 1009.90 1009.85 1010.04 1010.29 1010.54 1010.72 1010.81 1010.90 1011.13 1011.22 1011.38 1011.44
998.26 997.75 997.60 997.79 998.41 999.33 1000.23 1000.90 1001.88 1002.85 1003.11 1003.03 1003.68 1003.79 1004.49 1004.19 1004.57 1005.27 1005.82 1005.80 1006.13 1006.51 1006.99 1007.53 1007.79 1007.99 1008.18 1008.46 1008.67 1008.96 1009.34 1009.42 1009.51 1009.43 1009.54 1009.83 1010.04 1010.22 1010.41 1010.53 1010.54 1010.57 1010.83 1010.94
998.30 998.31 998.26 998.95 1000.01 1000.70 1001.59 1001.93 1001.90 1002.04 1002.20 1002.56 1002.34 1003.13 1004.37 1004.42 1004.19 1004.13 1004.62 1004.96 1005.51 1006.14 1006.34 1006.85 1007.30 1007.62 1007.92 1008.38 1008.69 1008.85 1008.93 1009.07 1009.12 1009.02 1008.91 1009.18 1009.48 1009.67 1009.90 1010.03 1010.32 1010.21 1010.24 1010.34
998.84 999.26 999.11 999.77 1000.25 1000.70 1001.12 1001.84 1002.35 1002.55 1003.12 1003.08 1003.25 1003.66 1003.95 1003.91 1003.42 1003.20 1003.83 1004.45 1004.82 1005.56 1006.05 1005.91 1006.55 1007.25 1007.85 1007.99 1008.24 1008.60 1008.79 1008.76 1008.75 1008.70 1008.71 1008.97 1009.28 1009.38 1009.61 1010.20 1010.93 1011.03 1011.17 1011.28
999.43 1000.16 1000.05 1000.30 1000.63 1001.04 1001.68 1002.21 1002.21 1002.42 1002.68 1003.10 1003.36 1003.54 1003.50 1003.23 1002.94 1002.74 1003.19 1003.71 1004.42 1005.99 1006.45 1006.81 1006.86 1006.97 1007.38 1007.72 1007.93 1008.18 1008.47 1008.48 1008.41 1008.44 1008.59 1008.82 1009.28 1009.70 1009.82 1009.93 1010.23 1010.59 1010.75 1010.99
999.98 1000.00 1000.16 1000.63 1000.69 1000.73 1002.26 1002.23 1002.14 1002.21 1002.09 1002.51 1002.87 1003.20 1003.16 1003.23 1002.92 1002.34 1002.91 1003.67 1004.22 1004.48 1005.01 1005.45 1006.07 1007.02 1008.00 1008.37 1008.26 1008.27 1008.57 1008.64 1008.55 1008.68 1008.77 1009.37 1009.65 1009.49 1009.65 1009.61 1009.79 1009.88 1010.11 1010.11
Wind_Speed
7 6 4 4 8 13 7 15 1 10 12 12 11 16 13 13 11 10 9 8 8 7 5 6 7 6 4 4 3 6 8 7 5 6 5 5 3 7 10 9 10 9 7 7
6 7 8 6 1 9 11 12 17 10 6 12 10 11 13 13 13 10 9 10 8 8 6 4 6 7 5 1 3 5 4 6 8 11 6 3 4 6 6 7 7 7 7 7
7 7 4 2 11 11 7 6 3 9 7 9 9 14 16 14 12 11 10 10 10 8 6 5 3 5 7 6 4 4 4 5 9 9 6 3 2 7 10 12 8 7 7 6
3 5 9 6 9 12 10 10 11 18 9 17 14 11 13 14 11 11 14 14 11 9 7 6 4 5 6 6 6 6 6 6 4 7 6 6 3 8 12 18 9 7 6 8
2 4 4 4 5 3 6 7 15 17 13 13 12 9 9 13 10 10 14 12 10 8 9 8 7 6 6 6 6 6 7 5 3 5 7 8 5 4 14 21 7 5 2 4
1 3 5 7 6 12 7 3 11 14 12 14 13 8 6 13 13 15 15 14 12 9 7 9 6 5 5 5 6 5 6 5 4 6 7 8 10 8 10 13 4 7 7 7
10 7 8 3 10 7 9 8 3 8 7 10 6 6 7 17 16 16 15 14 12 9 7 8 7 6 5 4 3 3 4 4 3 4 4 4 5 7 8 3 7 9 8 6
7 9 9 7 5 9 8 5 7 9 8 14 12 13 18 17 16 15 12 11 9 8 7 6 5 4 2 3 4 6 8 9 6 5 4 4 4 4 3 5 7 4 6 4
5 3 11 14 7 1 14 9 6 13 5 14 14 16 15 15 14 14 11 8 8 8 7 6 6 5 7 4 6 7 7 6 5 5 4 5 5 5 4 5 4 3 3 3
8 3 18 18 17 14 6 8 2 19 17 16 14 15 14 12 10 9 9 7 6 9 8 7 7 7 6 6 6 7 7 6 4 4 5 5 5 3 4 4 3 3 3 3
5 7 11 1 16 18 18 16 4 1 20 18 16 13 15 12 9 8 8 7 7 8 8 8 7 6 6 6 6 6 6 5 5 4 6 6 6 4 4 4 2 2 3 3
6 5 6 12 16 21 15 13 16 14 16 16 18 15 15 12 10 9 9 8 8 8 9 8 7 7 5 6 6 4 2 4 4 4 4 4 4 4 11 8 7 7 2 6
6 3 8 7 13 13 11 14 16 20 19 18 15 15 15 15 10 13 11 9 9 8 8 8 7 6 6 6 6 5 2 3 2 4 5 5 4 4 4 4 7 9 8 6
11 2 6 10 5 12 11 19 21 8 17 17 16 14 13 14 11 11 11 9 9 9 8 7 7 7 6 6 5 5 5 4 4 4 4 4 4 5 5 5 3 2 4 4
10 13 13 4 5 4 7 12 14 13 13 14 15 14 12 13 10 9 9 10 9 11 8 8 8 7 6 7 6 5 5 4 3 3 4 4 3 3 5 4 5 4 3 1
11 13 13 9 8 6 8 7 11 12 6 10 10 14 11 10 9 10 9 9 9 9 8 8 8 7 7 7 6 4 4 7 5 4 4 4 4 4 4 4 5 4 4 4
7 7 7 4 5 7 13 12 16 28 11 12 14 15 12 9 10 9 8 8 7 10 8 8 8 7 7 6 7 5 4 5 6 3 4 4 4 4 4 4 4 5 5 6
9 7 6 7 7 11 5 21 26 16 14 15 14 14 12 11 10 9 8 7 7 8 8 8 8 8 8 7 6 5 5 5 5 5 4 3 4 4 5 5 5 5 4 4
11 8 6 8 10 15 19 11 12 17 17 16 14 12 11 10 10 8 8 8 7 8 6 8 10 9 8 7 7 4 5 5 6 5 4 5 4 4 3 5 7 6 6 5
8 8 9 2 5 5 7 7 20 13 13 16 14 13 11 10 9 8 8 7 7 5 8 9 8 6 6 4 3 2 2 6 5 6 6 5 3 4 1 5 5 6 5 6
10 10 11 15 13 18 13 19 12 9 12 9 9 14 12 11 9 8 8 5 8 8 9 13 7 6 4 5 4 2 4 4 4 6 6 5 4 2 4 3 4 5 8 6
8 8 5 7 9 6 15 18 12 6 8 7 4 7 9 9 8 6 6 7 5 12 8 7 6 9 7 9 5 4 5 5 4 5 5 5 5 5 4 4 5 5 5 6
5 1 1 3 10 9 11 12 15 13 11 8 8 4 2 10 10 8 7 9 5 10 7 7 8 11 10 6 6 5 5 6 4 5 5 6 6 6 5 5 5 3 4 5
2 4 1 11 16 14 14 13 13 12 11 13 17 8 4 4 7 8 8 10 13 13 10 10 11 15 11 5 4 5 5 4 3 5 5 6 4 3 2 1 2 3 2 3
3 5 4 13 10 8 13 12 9 6 7 9 5 6 7 9 9 10 9 10 15 15 7 12 17 16 7 5 5 4 4 4 3 3 3 3 4 4 0 5 6 4 6 7
2 1 4 6 1 6 4 10 11 10 8 7 7 9 10 10 10 6 5 7 12 15 1 4 5 8 8 6 5 5 5 5 5 4 5 2 5 5 4 4 4 4 4 2
9 8 8 9 9 8 7 6 9 4 3 6 4 6 7 8 7 6 9 10 12 13 10 9 6 4 3 7 5 3 5 3 3 4 6 4 2 2 3 3 1 3 3 3
Wind_Direction
288 137 165 229 274 277 344 303 231 214 166 185 167 147 145 140 144 135 135 116 109 100 76 25 347 341 313 306 23 192 207 175 132 298 291 210 213 208 208 194 204 194 189 194
281 285 210 194 291 310 309 313 350 190 207 178 180 134 141 151 142 149 140 138 130 106 91 70 1 339 341 347 57 130 135 175 191 234 177 83 340 316 315 279 212 196 195 197
250 268 284 355 188 203 228 298 187 290 193 130 148 153 157 153 149 154 145 143 124 119 110 96 48 9 22 16 40 32 76 112 165 167 137 142 269 319 315 288 236 201 197 196
205 325 269 234 174 169 206 284 326 300 211 161 166 161 148 152 149 151 138 135 131 126 121 114 94 60 49 49 58 68 53 80 112 130 138 164 254 295 301 283 243 216 201 205
188 235 276 4 178 121 132 255 268 186 171 149 141 105 151 151 147 144 150 144 139 140 135 125 118 112 83 69 64 57 67 88 115 120 129 147 114 34 287 276 245 227 202 203
281 180 241 191 164 136 138 220 297 326 166 146 133 130 210 155 147 133 135 136 133 127 118 113 120 119 107 103 100 92 95 98 98 153 169 166 147 169 253 250 150 118 93 81
256 243 245 175 139 147 147 225 306 312 163 133 101 174 146 108 114 119 126 127 133 140 152 155 161 155 154 171 169 162 125 119 96 77 91 127 182 168 213 133 74 78 83 83
229 246 262 163 140 156 189 180 79 359 84 105 113 97 110 115 116 117 121 125 114 114 114 116 112 112 139 115 93 79 78 67 55 66 55 70 114 84 27 94 101 89 94 87
28 324 329 333 217 161 152 168 144 136 201 119 122 120 118 123 126 129 134 130 131 130 123 110 92 63 98 82 85 91 84 64 56 68 68 51 66 80 78 88 71 88 93 99
348 308 331 337 1 14 345 146 147 143 143 139 131 132 129 132 134 132 146 143 136 132 126 117 99 76 99 101 84 81 94 102 81 70 57 43 60 54 69 58 96 111 122 117
249 264 313 174 353 348 336 327 57 321 148 143 136 128 132 130 126 120 112 114 121 121 117 119 105 89 91 96 105 107 130 133 134 117 97 77 55 26 69 71 20 69 82 98
243 188 176 272 315 323 326 329 312 232 154 143 134 135 131 131 130 120 114 107 103 109 117 123 124 127 106 112 111 127 149 142 156 128 114 116 113 85 51 54 23 26 79 111
237 186 223 237 251 285 335 329 311 181 145 143 139 137 137 135 137 133 130 129 135 141 134 133 144 145 135 136 136 142 160 100 148 154 142 147 144 133 117 49 54 48 58 91
245 302 315 234 231 305 345 327 314 208 134 133 133 135 135 134 136 135 144 157 133 130 132 144 140 141 152 138 138 130 112 94 95 104 126 129 156 160 151 155 158 142 35 108
204 217 242 255 320 273 336 329 288 343 119 129 133 135 130 135 134 142 132 127 122 130 129 132 132 153 156 146 153 161 148 154 155 153 154 172 195 201 158 152 134 132 130 143
251 228 222 212 241 268 309 287 266 270 160 110 113 128 128 122 123 116 123 125 124 144 149 138 142 158 155 153 164 173 144 173 198 180 174 186 187 164 156 166 152 162 178 180
246 218 219 233 74 154 239 250 214 231 145 134 132 131 130 125 118 120 128 134 141 147 149 150 161 159 162 174 173 178 173 186 205 193 175 203 183 195 184 185 176 177 193 174
254 223 170 133 148 121 280 261 246 142 146 137 129 129 129 131 141 140 142 144 130 130 157 158 151 170 173 181 183 195 182 180 183 209 220 195 197 200 198 197 178 177 174 182
240 206 224 136 164 174 204 286 183 138 135 134 128 132 132 135 139 143 140 141 146 148 176 150 167 163 183 198 176 181 201 217 199 193 207 205 230 178 206 195 157 172 165 169
214 242 240 329 130 181 205 53 30 112 141 133 132 130 128 138 141 142 140 155 171 176 161 155 158 163 181 185 230 200 173 234 180 160 158 178 190 234 261 151 129 162 167 180
204 239 246 175 175 178 102 62 26 15 21 23 131 146 148 153 145 145 144 162 206 184 159 161 165 172 189 179 208 230 276 296 168 157 162 180 172 254 228 213 214 177 185 192
218 235 261 111 157 111 117 139 130 42 359 347 354 37 139 153 149 158 176 181 186 162 152 171 172 184 185 178 190 214 226 262 257 176 173 178 191 210 237 231 200 215 219 202
202 225 101 59 133 134 142 154 168 169 173 146 258 155 246 175 168 167 192 211 163 166 156 170 192 192 185 171 184 205 227 239 242 211 180 178 191 197 207 219 236 193 196 231
62 353 181 104 135 132 151 164 168 180 186 191 213 194 181 223 186 188 189 189 173 178 173 180 192 186 168 184 194 209 222 249 282 226 174 149 140 133 99 28 296 291 288 212
66 351 262 125 146 162 145 162 170 174 202 212 204 238 231 259 213 202 199 192 182 174 192 186 181 182 184 181 190 214 238 237 236 219 179 168 194 205 171 64 76 55 34 38
272 229 54 50 155 129 148 174 188 192 191 210 224 229 240 233 221 212 183 156 130 116 226 297 218 183 185 182 186 199 225 246 251 230 215 157 100 116 134 116 98 92 94 353
85 66 55 19 337 7 27 47 28 22 156 170 175 13 16 358 310 244 152 154 168 170 185 214 175 144 62 30 352 36 90 72 66 94 104 90 77 165 200 180 179 152 198 228